BAW907 EDDF-EGLL

Flight info

Callsign BAW907
Flight time 1h 6m
Altitude 40000
Route OBOKA3W OBOKA Z29 TORNU DCT ABNED L980 LOGAN
Aircraft A388/J-SADE2E3FGHIJ3J4J5M1RWXY/LB1D1

Departure

Time 2026-05-04 22:28
Airport Frankfurt Main Airport (EDDF)

Arrival

Time 2026-05-04 23:35
Airport London Heathrow Airport (EGLL)
Time Latitude Longitude Altitude Speed Heading
2026-05-04 22:12 50.05040 8.58643 364 ft 0 kts 339°
2026-05-04 22:19 50.05020 8.58654 369 ft 4 kts 339°
2026-05-04 22:20 50.04995 8.58669 366 ft 4 kts 339°
2026-05-04 22:20 50.04976 8.58678 369 ft 4 kts 355°
2026-05-04 22:20 50.04958 8.58673 369 ft 4 kts 34°
2026-05-04 22:20 50.04945 8.58649 370 ft 4 kts 67°
2026-05-04 22:21 50.04936 8.58612 368 ft 4 kts 69°
2026-05-04 22:21 50.04927 8.58572 368 ft 4 kts 69°
2026-05-04 22:21 50.04917 8.58533 368 ft 4 kts 69°
2026-05-04 22:21 50.04915 8.58526 369 ft 1 kts 69°
2026-05-04 22:24 50.04929 8.58584 368 ft 10 kts 69°
2026-05-04 22:24 50.04921 8.58664 372 ft 6 kts 154°
2026-05-04 22:24 50.04864 8.58696 373 ft 11 kts 159°
2026-05-04 22:24 50.04782 8.58744 374 ft 14 kts 160°
2026-05-04 22:25 50.04702 8.58768 375 ft 11 kts 184°
2026-05-04 22:25 50.04650 8.58759 375 ft 0 kts 188°
2026-05-04 22:26 50.04613 8.58745 377 ft 9 kts 206°
2026-05-04 22:26 50.04543 8.58664 380 ft 16 kts 219°
2026-05-04 22:26 50.04486 8.58578 378 ft 13 kts 243°
2026-05-04 22:26 50.04465 8.58498 376 ft 2 kts 251°
2026-05-04 22:27 50.04465 8.58497 376 ft 0 kts 250°
2026-05-04 22:27 50.04464 8.58495 376 ft 2 kts 250°
2026-05-04 22:27 50.04441 8.58396 378 ft 29 kts 250°
2026-05-04 22:28 50.04248 8.57591 371 ft 126 kts 250°
2026-05-04 22:28 50.03869 8.56000 390 ft 179 kts 250°
2026-05-04 22:28 50.03434 8.54211 1056 ft 174 kts 250°
2026-05-04 22:28 50.03012 8.52469 1790 ft 171 kts 250°
2026-05-04 22:29 50.02576 8.50714 2343 ft 179 kts 245°
2026-05-04 22:29 50.01806 8.49095 2587 ft 195 kts 221°
2026-05-04 22:29 50.00576 8.48061 2783 ft 210 kts 195°
2026-05-04 22:29 49.99106 8.47763 3443 ft 218 kts 186°
2026-05-04 22:30 49.97634 8.47474 4682 ft 210 kts 188°
2026-05-04 22:30 49.96196 8.47142 5917 ft 207 kts 192°
2026-05-04 22:30 49.94808 8.46531 6983 ft 213 kts 198°
2026-05-04 22:30 49.93326 8.45816 7695 ft 234 kts 197°
2026-05-04 22:31 49.91800 8.44798 8611 ft 243 kts 214°
2026-05-04 22:31 49.90624 8.42904 9761 ft 248 kts 236°
2026-05-04 22:31 49.89753 8.40572 10730 ft 252 kts 238°
2026-05-04 22:31 49.88928 8.38149 11720 ft 258 kts 247°
2026-05-04 22:32 49.88578 8.35370 12661 ft 269 kts 266°
2026-05-04 22:32 49.88728 8.32425 13469 ft 283 kts 272°
2026-05-04 22:32 49.88938 8.29261 13812 ft 308 kts 276°
2026-05-04 22:32 49.89563 8.25940 14046 ft 336 kts 291°
2026-05-04 22:33 49.90825 8.22736 14334 ft 359 kts 305°
2026-05-04 22:33 49.92361 8.19664 15093 ft 362 kts 304°
2026-05-04 22:33 49.93934 8.16549 15679 ft 372 kts 308°
2026-05-04 22:33 49.95797 8.13731 16488 ft 376 kts 316°
2026-05-04 22:34 49.97806 8.11103 17205 ft 379 kts 316°
2026-05-04 22:34 49.99811 8.08423 17932 ft 382 kts 316°
2026-05-04 22:34 50.01834 8.05702 18583 ft 386 kts 316°
2026-05-04 22:34 50.03875 8.02956 19173 ft 389 kts 316°
2026-05-04 22:35 50.05904 8.00227 19756 ft 393 kts 316°
2026-05-04 22:35 50.07982 7.97436 20341 ft 396 kts 316°
2026-05-04 22:35 50.10077 7.94620 20878 ft 400 kts 316°
2026-05-04 22:35 50.12196 7.91769 21441 ft 404 kts 316°
2026-05-04 22:36 50.14330 7.88895 21998 ft 407 kts 316°
2026-05-04 22:36 50.16483 7.85991 22590 ft 410 kts 315°
2026-05-04 22:36 50.18635 7.83086 23191 ft 412 kts 315°
2026-05-04 22:36 50.20821 7.80129 23705 ft 417 kts 315°
2026-05-04 22:37 50.23022 7.77151 24136 ft 420 kts 316°
2026-05-04 22:37 50.25368 7.74385 24608 ft 426 kts 323°
2026-05-04 22:37 50.27977 7.72101 25083 ft 433 kts 331°
2026-05-04 22:37 50.30763 7.70219 25549 ft 438 kts 333°
2026-05-04 22:38 50.33568 7.68314 26039 ft 441 kts 333°
2026-05-04 22:38 50.36386 7.66371 26549 ft 445 kts 332°
2026-05-04 22:38 50.39232 7.64404 27093 ft 449 kts 332°
2026-05-04 22:38 50.42101 7.62423 27681 ft 452 kts 332°
2026-05-04 22:39 50.44987 7.60433 28226 ft 456 kts 332°
2026-05-04 22:39 50.47905 7.58421 28772 ft 460 kts 332°
2026-05-04 22:39 50.50851 7.56387 29327 ft 464 kts 332°
2026-05-04 22:39 50.53822 7.54334 29859 ft 469 kts 332°
2026-05-04 22:40 50.56725 7.52015 30373 ft 468 kts 324°
2026-05-04 22:40 50.59448 7.49221 30917 ft 468 kts 321°
2026-05-04 22:40 50.62185 7.46399 31481 ft 471 kts 322°
2026-05-04 22:40 50.64955 7.43576 31905 ft 477 kts 322°
2026-05-04 22:41 50.67744 7.40730 32460 ft 478 kts 322°
2026-05-04 22:41 50.70537 7.37862 33010 ft 479 kts 320°
2026-05-04 22:41 50.73069 7.34600 33490 ft 475 kts 310°
2026-05-04 22:41 50.75223 7.30689 34017 ft 470 kts 300°
2026-05-04 22:42 50.76937 7.26329 34410 ft 467 kts 292°
2026-05-04 22:42 50.78403 7.21731 34786 ft 470 kts 292°
2026-05-04 22:42 50.79922 7.17072 35291 ft 472 kts 292°
2026-05-04 22:42 50.81410 7.12527 35798 ft 472 kts 292°
2026-05-04 22:43 50.82915 7.07916 36314 ft 473 kts 292°
2026-05-04 22:43 50.84419 7.03285 36841 ft 473 kts 293°
2026-05-04 22:43 50.85922 6.98638 37335 ft 475 kts 293°
2026-05-04 22:43 50.87422 6.93985 37850 ft 475 kts 293°
2026-05-04 22:44 50.88924 6.89319 38383 ft 475 kts 293°
2026-05-04 22:44 50.90421 6.84661 38849 ft 475 kts 293°
2026-05-04 22:44 50.91919 6.79989 39272 ft 475 kts 293°
2026-05-04 22:44 50.93409 6.75334 39677 ft 474 kts 294°
2026-05-04 22:45 50.94905 6.70651 39935 ft 478 kts 294°
2026-05-04 22:45 50.99399 6.56531 39963 ft 478 kts 294°
2026-05-04 22:46 51.02391 6.47083 39960 ft 479 kts 294°
2026-05-04 22:46 51.05379 6.37615 39960 ft 479 kts 294°
2026-05-04 22:47 51.08357 6.28142 39958 ft 479 kts 294°
2026-05-04 22:47 51.11306 6.18721 39960 ft 479 kts 293°
2026-05-04 22:48 51.13970 6.09037 39966 ft 476 kts 287°
2026-05-04 22:48 51.15782 5.98944 39963 ft 474 kts 282°
2026-05-04 22:49 51.17441 5.88788 39960 ft 473 kts 282°
2026-05-04 22:49 51.19530 5.78801 39969 ft 480 kts 290°
2026-05-04 22:50 51.22196 5.68797 39958 ft 500 kts 290°
2026-05-04 22:50 51.24863 5.58632 39947 ft 496 kts 290°
2026-05-04 22:51 51.27523 5.48461 39952 ft 497 kts 290°
2026-05-04 22:51 51.30179 5.38273 39949 ft 497 kts 290°
2026-05-04 22:52 51.32827 5.28069 39947 ft 497 kts 290°
2026-05-04 22:52 51.35469 5.17844 39963 ft 498 kts 290°
2026-05-04 22:53 51.38102 5.07604 39960 ft 498 kts 290°
2026-05-04 22:53 51.40729 4.97345 39965 ft 498 kts 290°
2026-05-04 22:54 51.43345 4.87076 39960 ft 498 kts 290°
2026-05-04 22:54 51.45954 4.76793 39976 ft 500 kts 290°
2026-05-04 22:55 51.48560 4.66471 39962 ft 498 kts 290°
2026-05-04 22:55 51.51150 4.56167 39959 ft 498 kts 290°
2026-05-04 22:56 51.53733 4.45844 39965 ft 498 kts 290°
2026-05-04 22:56 51.55870 4.37264 39965 ft 498 kts 289°
2026-05-04 22:57 51.58437 4.26918 39962 ft 498 kts 289°
2026-05-04 22:57 51.61408 4.14880 39964 ft 498 kts 289°
2026-05-04 22:58 51.63540 4.06199 39961 ft 498 kts 289°
2026-05-04 22:58 51.66079 3.95822 39970 ft 498 kts 289°
2026-05-04 22:59 51.68593 3.85494 39989 ft 499 kts 289°
2026-05-04 22:59 51.71132 3.75011 39983 ft 499 kts 289°
2026-05-04 23:00 51.73631 3.64649 39994 ft 499 kts 289°
2026-05-04 23:00 51.76134 3.54219 40005 ft 498 kts 289°
2026-05-04 23:01 51.78619 3.43815 40006 ft 497 kts 289°
2026-05-04 23:01 51.81097 3.33389 40006 ft 497 kts 289°
2026-05-04 23:02 51.83294 3.22828 40022 ft 495 kts 281°
2026-05-04 23:02 51.84211 3.11853 40020 ft 491 kts 270°
2026-05-04 23:03 51.84173 3.06417 40007 ft 478 kts 265°
2026-05-04 23:03 51.83842 3.01118 40014 ft 471 kts 262°
2026-05-04 23:03 51.83499 2.95874 39858 ft 466 kts 263°
2026-05-04 23:03 51.83173 2.90679 39347 ft 464 kts 263°
2026-05-04 23:04 51.82840 2.85467 38426 ft 469 kts 263°
2026-05-04 23:04 51.82498 2.80236 37696 ft 466 kts 262°
2026-05-04 23:04 51.82154 2.75073 37133 ft 459 kts 262°
2026-05-04 23:04 51.81810 2.69964 36435 ft 456 kts 262°
2026-05-04 23:05 51.81464 2.64885 35737 ft 452 kts 262°
2026-05-04 23:05 51.81118 2.59849 34994 ft 450 kts 262°
2026-05-04 23:05 51.80769 2.54832 34166 ft 450 kts 262°
2026-05-04 23:05 51.80419 2.49820 33352 ft 447 kts 262°
2026-05-04 23:06 51.80073 2.44885 32869 ft 441 kts 262°
2026-05-04 23:06 51.79723 2.39942 32475 ft 441 kts 262°
2026-05-04 23:06 51.79375 2.35043 31940 ft 437 kts 262°
2026-05-04 23:06 51.79030 2.30208 31449 ft 430 kts 262°
2026-05-04 23:07 51.78689 2.25455 30928 ft 422 kts 262°
2026-05-04 23:07 51.78354 2.20785 30429 ft 415 kts 262°
2026-05-04 23:07 51.78067 2.16179 29909 ft 409 kts 263°
2026-05-04 23:07 51.77813 2.11643 29413 ft 401 kts 263°
2026-05-04 23:08 51.77567 2.07252 28944 ft 396 kts 263°
2026-05-04 23:08 51.77315 2.02848 28464 ft 393 kts 263°
2026-05-04 23:08 51.77055 1.98456 27983 ft 392 kts 263°
2026-05-04 23:08 51.76793 1.94084 27501 ft 390 kts 263°
2026-05-04 23:09 51.76527 1.89677 27016 ft 389 kts 263°
2026-05-04 23:09 51.76266 1.85395 26547 ft 387 kts 263°
2026-05-04 23:09 51.76003 1.81093 26067 ft 383 kts 262°
2026-05-04 23:09 51.75736 1.76782 25584 ft 381 kts 263°
2026-05-04 23:10 51.75475 1.72587 25125 ft 380 kts 263°
2026-05-04 23:10 51.75211 1.68355 24647 ft 379 kts 263°
2026-05-04 23:10 51.74946 1.64137 24173 ft 377 kts 263°
2026-05-04 23:10 51.74682 1.59952 23701 ft 373 kts 263°
2026-05-04 23:11 51.74418 1.55800 23174 ft 372 kts 263°
2026-05-04 23:11 51.74154 1.51656 22715 ft 371 kts 264°
2026-05-04 23:11 51.73887 1.47490 22267 ft 374 kts 263°
2026-05-04 23:11 51.73621 1.43357 21804 ft 368 kts 263°
2026-05-04 23:12 51.73357 1.39287 21320 ft 362 kts 263°
2026-05-04 23:12 51.73094 1.35254 20862 ft 361 kts 263°
2026-05-04 23:12 51.72829 1.31227 20376 ft 361 kts 263°
2026-05-04 23:12 51.72564 1.27214 19901 ft 359 kts 262°
2026-05-04 23:13 51.72300 1.23230 19434 ft 357 kts 262°
2026-05-04 23:13 51.72037 1.19274 18962 ft 354 kts 262°
2026-05-04 23:13 51.71771 1.15327 18490 ft 353 kts 262°
2026-05-04 23:13 51.71507 1.11411 17989 ft 350 kts 263°
2026-05-04 23:14 51.71244 1.07517 17521 ft 348 kts 262°
2026-05-04 23:14 51.70980 1.03645 17055 ft 346 kts 262°
2026-05-04 23:14 51.70717 0.99795 16597 ft 344 kts 262°
2026-05-04 23:14 51.70457 0.96017 16160 ft 342 kts 263°
2026-05-04 23:15 51.70191 0.92168 15998 ft 341 kts 263°
2026-05-04 23:15 51.69932 0.88430 15675 ft 339 kts 263°
2026-05-04 23:15 51.69669 0.84654 15166 ft 338 kts 263°
2026-05-04 23:15 51.69406 0.80901 14586 ft 337 kts 263°
2026-05-04 23:16 51.69141 0.77145 14099 ft 336 kts 263°
2026-05-04 23:16 51.68880 0.73453 13861 ft 335 kts 263°
2026-05-04 23:16 51.68617 0.69745 13595 ft 328 kts 263°
2026-05-04 23:16 51.68362 0.66164 13361 ft 316 kts 263°
2026-05-04 23:17 51.68115 0.62709 12994 ft 306 kts 263°
2026-05-04 23:17 51.67872 0.59334 12456 ft 301 kts 263°
2026-05-04 23:17 51.67630 0.55994 12086 ft 298 kts 263°
2026-05-04 23:17 51.67389 0.52673 11786 ft 296 kts 263°
2026-05-04 23:18 51.67151 0.49397 11459 ft 294 kts 263°
2026-05-04 23:18 51.66911 0.46120 11126 ft 294 kts 263°
2026-05-04 23:18 51.66672 0.42865 10804 ft 292 kts 263°
2026-05-04 23:18 51.66434 0.39623 10480 ft 290 kts 263°
2026-05-04 23:19 51.66196 0.36407 10157 ft 288 kts 263°
2026-05-04 23:19 51.65958 0.33208 9837 ft 286 kts 263°
2026-05-04 23:19 51.65721 0.30028 9492 ft 285 kts 263°
2026-05-04 23:19 51.65485 0.26874 9178 ft 282 kts 263°
2026-05-04 23:20 51.65251 0.23745 8865 ft 281 kts 263°
2026-05-04 23:20 51.65015 0.20620 8554 ft 280 kts 264°
2026-05-04 23:20 51.64781 0.17526 8240 ft 278 kts 263°
2026-05-04 23:20 51.64548 0.14462 8045 ft 273 kts 263°
2026-05-04 23:21 51.64085 0.11513 8098 ft 272 kts 256°
2026-05-04 23:21 51.63786 0.08483 8022 ft 275 kts 266°
2026-05-04 23:21 51.63631 0.05424 7943 ft 274 kts 266°
2026-05-04 23:21 51.63474 0.02368 7750 ft 274 kts 266°
2026-05-04 23:22 51.63319 -0.00682 7568 ft 272 kts 266°
2026-05-04 23:22 51.63165 -0.03704 7377 ft 269 kts 266°
2026-05-04 23:22 51.63015 -0.06707 7180 ft 269 kts 266°
2026-05-04 23:22 51.62863 -0.09699 7043 ft 267 kts 266°
2026-05-04 23:23 51.62708 -0.12684 7045 ft 268 kts 266°
2026-05-04 23:23 51.62556 -0.15634 7047 ft 269 kts 266°
2026-05-04 23:23 51.62401 -0.18630 7048 ft 269 kts 266°
2026-05-04 23:23 51.62246 -0.21631 7047 ft 269 kts 266°
2026-05-04 23:24 51.62090 -0.24627 7048 ft 269 kts 266°
2026-05-04 23:24 51.61934 -0.27623 7048 ft 269 kts 266°
2026-05-04 23:24 51.61781 -0.30616 7048 ft 269 kts 266°
2026-05-04 23:24 51.61625 -0.33615 7021 ft 269 kts 266°
2026-05-04 23:25 51.61470 -0.36600 7021 ft 266 kts 266°
2026-05-04 23:25 51.61317 -0.39494 7018 ft 251 kts 266°
2026-05-04 23:25 51.61171 -0.42218 7021 ft 240 kts 266°
2026-05-04 23:25 51.61029 -0.44852 7020 ft 235 kts 266°
2026-05-04 23:26 51.60887 -0.47475 7020 ft 236 kts 266°
2026-05-04 23:26 51.60745 -0.50105 7021 ft 236 kts 266°
2026-05-04 23:26 51.60603 -0.52736 7020 ft 236 kts 266°
2026-05-04 23:26 51.60460 -0.55367 7022 ft 236 kts 266°
2026-05-04 23:27 51.60317 -0.58004 6870 ft 239 kts 265°
2026-05-04 23:27 51.60172 -0.60674 6565 ft 239 kts 266°
2026-05-04 23:27 51.60025 -0.63323 6265 ft 237 kts 265°
2026-05-04 23:27 51.59877 -0.65947 5963 ft 235 kts 265°
2026-05-04 23:28 51.59728 -0.68558 5649 ft 234 kts 265°
2026-05-04 23:28 51.59579 -0.71123 5349 ft 232 kts 265°
2026-05-04 23:28 51.59103 -0.73537 5093 ft 226 kts 237°
2026-05-04 23:28 51.57907 -0.75142 4897 ft 222 kts 204°
2026-05-04 23:29 51.56491 -0.75934 4705 ft 215 kts 200°
2026-05-04 23:29 51.55112 -0.76655 4471 ft 198 kts 193°
2026-05-04 23:29 51.53751 -0.76778 4241 ft 197 kts 181°
2026-05-04 23:29 51.52378 -0.76760 3987 ft 197 kts 180°
2026-05-04 23:30 51.51008 -0.76737 3636 ft 197 kts 175°
2026-05-04 23:30 51.49766 -0.75941 3286 ft 193 kts 136°
2026-05-04 23:30 51.48980 -0.74239 3173 ft 189 kts 120°
2026-05-04 23:30 51.48282 -0.72469 3046 ft 188 kts 116°
2026-05-04 23:31 51.47852 -0.70526 2828 ft 183 kts 99°
2026-05-04 23:31 51.47713 -0.68507 2578 ft 181 kts 91°
2026-05-04 23:31 51.47688 -0.66509 2332 ft 179 kts 88°
2026-05-04 23:31 51.47692 -0.64575 2090 ft 166 kts 88°
2026-05-04 23:32 51.47697 -0.62768 1870 ft 158 kts 88°
2026-05-04 23:32 51.47702 -0.61073 1659 ft 146 kts 88°
2026-05-04 23:32 51.47709 -0.59494 1461 ft 139 kts 88°
2026-05-04 23:32 51.47715 -0.57958 1285 ft 137 kts 88°
2026-05-04 23:33 51.47720 -0.56428 1089 ft 138 kts 87°
2026-05-04 23:33 51.47725 -0.54895 896 ft 137 kts 87°
2026-05-04 23:33 51.47726 -0.53359 678 ft 137 kts 88°
2026-05-04 23:33 51.47739 -0.51830 509 ft 136 kts 88°
2026-05-04 23:34 51.47747 -0.50307 321 ft 137 kts 89°
2026-05-04 23:34 51.47754 -0.48790 165 ft 137 kts 88°
2026-05-04 23:34 51.47759 -0.47335 93 ft 114 kts 91°
2026-05-04 23:34 51.47759 -0.46316 95 ft 74 kts 90°
2026-05-04 23:35 51.47761 -0.45628 92 ft 52 kts 90°
2026-05-04 23:35 51.47762 -0.45141 93 ft 37 kts 89°
2026-05-04 23:35 51.47763 -0.44799 94 ft 29 kts 90°
2026-05-04 23:35 51.47729 -0.44498 95 ft 27 kts 111°
2026-05-04 23:36 51.47664 -0.44267 95 ft 16 kts 133°
2026-05-04 23:36 51.47620 -0.44219 95 ft 3 kts 152°
2026-05-04 23:36 51.47595 -0.44162 95 ft 10 kts 94°
2026-05-04 23:36 51.47588 -0.44060 93 ft 4 kts 131°
2026-05-04 23:37 51.47549 -0.44051 93 ft 12 kts 182°
2026-05-04 23:37 51.47507 -0.44108 94 ft 11 kts 267°
2026-05-04 23:37 51.47505 -0.44295 94 ft 14 kts 268°
2026-05-04 23:37 51.47503 -0.44488 94 ft 20 kts 269°
2026-05-04 23:38 51.47511 -0.44736 95 ft 24 kts 270°
2026-05-04 23:38 51.47509 -0.44957 95 ft 20 kts 269°
2026-05-04 23:38 51.47508 -0.45204 95 ft 23 kts 270°
2026-05-04 23:38 51.47509 -0.45481 91 ft 26 kts 270°
2026-05-04 23:39 51.47510 -0.45686 95 ft 17 kts 271°
2026-05-04 23:39 51.47518 -0.45906 93 ft 22 kts 269°
2026-05-04 23:39 51.47517 -0.46153 91 ft 24 kts 270°
2026-05-04 23:39 51.47516 -0.46441 91 ft 27 kts 269°
2026-05-04 23:40 51.47509 -0.46701 95 ft 23 kts 253°
2026-05-04 23:40 51.47492 -0.46952 91 ft 24 kts 270°
2026-05-04 23:40 51.47492 -0.47204 91 ft 13 kts 269°
2026-05-04 23:40 51.47479 -0.47349 96 ft 7 kts 212°
2026-05-04 23:41 51.47401 -0.47356 92 ft 16 kts 178°
2026-05-04 23:41 51.47277 -0.47353 92 ft 20 kts 179°
2026-05-04 23:41 51.47183 -0.47353 94 ft 8 kts 180°
2026-05-04 23:41 51.47147 -0.47362 95 ft 3 kts 234°
2026-05-04 23:42 51.47144 -0.47433 94 ft 9 kts 270°
2026-05-04 23:42 51.47144 -0.47458 94 ft 3 kts 270°
2026-05-04 23:42 51.47144 -0.47483 94 ft 1 kts 270°
2026-05-04 23:42 51.47144 -0.47485 94 ft 0 kts 270°